Location: Newark
(48.8833°N, 0.9236°W)
Time: 12:23:55
(UTC+00:00)

Tiros 1 despin weight - Pass Details

Date: 19 November 2019
Orbit: 594 x 642 km, 48.2° (Epoch: 13 December)

Event Time Altitude Azimuth Distance (km) Brightness Sun altitude
Rises 19:17:31 0° 281° (W) 2,858 ? -29.0°
Reaches altitude 10° 19:20:18 10° 264° (W) 1,960 ? -29.5°
Maximum altitude 19:23:31 20° 218° (SW) 1,442 ? -30.0°
Enters shadow 19:23:45 20° 214° (SSW) 1,446 ? -30.0°
Drops below altitude 10° 19:26:47 10° 172° (S) 1,974 - -30.5°
Sets 19:29:36 0° 155° (SSE) 2,887 - -31.0°
